Regional Weather Roundup
Issued by NWS Northern Indiana

Home | Current Version | Previous Version | Graphics & Text | Print | Product List | Glossary On
Versions: 1 2 3 4 5 6 7 8 9 10 11 12 13 14 15 16 17 18 19 20 21 22 23 24 25 26 27 28 29 30 31 32 33 34 35 36 37 38 39 40 41 42 43 44 45 46 47 48 49 50
000
ASUS43 KIWX 070110
RWRIWX

KIWX WEATHER ROUNDUP
NATIONAL WEATHER SERVICE NORTHERN INDIANA
900 PM EDT MON JUL 06 2015

NOTE: "FAIR" INDICATES FEW OR NO CLOUDS BELOW 12,000 FEET WITH NO
SIGNIFICANT WEATHER AND/OR OBSTRUCTIONS TO VISIBILITY.

* THESE STATIONS ARE NOT UNDER NWS QUALITY CONTROL. THEY ALSO MAY NOT
  REPORT WEATHER SUCH AS PRECIPITATION OR FOG.

INZ001>027-070200-
NORTHERN INDIANA

CITY           SKY/WX    TMP DP  RH WIND       PRES   REMARKS
GARY*          MOCLDY   N/A N/A N/A S6        29.96R
VALPARAISO     MOCLDY    73  68  84 S7        29.88F
MICHIGAN CITY* MOCLDY    73  70  88 S9        29.88S
LAPORTE*       MOCLDY    76  69  80 S10G20    29.90S
KNOX*          CLOUDY    79  66  65 NW13G18   29.90R
SOUTH BEND     MOCLDY    82  69  64 S10       29.89F
ELKHART*       CLEAR     81  66  61 S6        29.91F
GOSHEN         CLOUDY    79  67  66 S8        29.90F
MONTICELLO*    CLOUDY    80  73  79 S6        29.90F
LOGANSPORT*    CLOUDY    79  64  61 S6        29.93S
ROCHESTER*     MOCLDY    81  72  74 S6        29.92F
WARSAW*          N/A     79  68  69 S3        29.92F
ANGOLA*          N/A     79  72  78 S7        29.93F
FORT WAYNE     MOCLDY    78  66  66 S8        29.94F HAZE
HUNTINGTON*    MOCLDY    78  67  68 S5        29.93F
PERU/GRISSOM   MOCLDY    78  70  76 S7        29.92F
MARION*        MOCLDY    76  67  71 S6        29.96S HAZE

$$
INZ028>050-070200-
CENTRAL INDIANA

CITY           SKY/WX    TMP DP  RH WIND       PRES   REMARKS
LAFAYETTE      CLOUDY    80  70  71 S6        29.90F
KOKOMO*        MOCLDY    79  68  69 SW8       29.94R
MUNCIE*        PTCLDY    80  67  64 MISG      29.96F
INDIANAPOLIS   MOCLDY    79  69  71 S8        29.95S

$$
MIZ043>046-050>051-056>058-064>065-071>073-077>080-070200-
SOUTHWEST LOWER MICHIGAN

CITY           SKY/WX    TMP DP  RH WIND       PRES   REMARKS
BATTLE CREEK   CLOUDY    80  66  62 S12       29.90F
BENTON HARBOR  CLOUDY    80  67  64 S9        29.86F
COLDWATER*     MOCLDY    77  65  65 S3        29.92F
HILLSDALE*     MOCLDY    78  67  68 CALM      29.94F HAZE
HOLLAND        CLOUDY    81  68  64 S8        29.85F
GRAND RAPIDS   CLOUDY    79  66  64 S9        29.86F HAZE
KALAMAZOO      CLOUDY    79  66  64 S8        29.89F
STURGIS*       CLOUDY    77  66  69 S5        29.91F
THREE RIVERS*  FAIR      78  66  66 S7        29.90F

$$
OHZ001>008-015>018-024>025-070200-
NORTHWEST OHIO

CITY           SKY/WX    TMP DP  RH WIND       PRES   REMARKS
DEFIANCE       MOCLDY    81  65  58 S6        29.94F
FINDLAY        CLEAR     75  65  70 S9        29.97S
TOLEDO EXPRESS PTCLDY    77  64  64 S6        29.94F
TOLEDO METCALF CLEAR     76  63  64 S7        29.96S
LIMA           CLEAR     77  65  66 S6        29.99S

$$
AND FOR LAKE MICHIGAN COASTAL AND OPEN LAKE BUOY OBSERVATIONS

STATION/POSITION TEMP    WIND        PRES    VSBY  WAVE
                 AIR SEA DIR/SP/G                  HT/PER
                 (F)     (DEG/KT/KT) (MB)    (MI)  (FT/S)
CALUMET HARBOR    80     180/ 10/ 20   N/A
MICHIGAN CITY     77     140/  9/ 13   N/A
BURNS HARBOR      78     160/  7/ 12 1011.9F
SAINT JOSEPH      80     160/  5/  9 1011.9S
4 MI NW BRIDGMAN  72 67  200/ 10/ 12   N/A           1/ 2
MICHIGAN CITY     74 68  200/ 12/ 17   N/A           1/ 2

$$
&&



USA.gov is the U.S. government's official web portal to all federal, state and local government web resources and services.